Location: Kruen
(47.5000°N, 11.5000°E)
Time: 22:30:20
(UTC+01:00)

ISS - Pass Details

Date: 26 September 2020
Orbit: 417 x 420 km, 51.6° (Epoch: 27 October)

Event Time Altitude Azimuth Distance (km) Brightness Sun altitude
Rises 20:13:43 0° 277° (W) 2,365 2.1 -12.7°
Reaches altitude 10° 20:15:54 10° 286° (WNW) 1,501 0.5 -13.1°
Maximum altitude 20:19:06 39° 357° (N) 646 -2.7 -13.6°
Enters shadow 20:21:09 19° 58° (ENE) 1,085 -2.1 -14.0°
